Location: Unspecified
(0.0000°N, 0.0000°E)
Time: 08:02:08
(UTC+00:00)

ISS - Visible Passes

Search period start: 10 December 2025 00:00
Search period end: 20 December 2025 00:00
Orbit: 416 x 420 km, 51.6° (Epoch: 09 December)

Date Brightness Start Highest point End Pass type
(mag) Time Alt. Az. Time Alt. Az. Time Alt. Az.
10 Dec -3.7 05:12:59 10° SW 05:16:17 53° NW 05:19:34 10° NNE visible
11 Dec -3.2 04:25:08 10° SSW 04:28:27 57° SE 04:31:45 10° NE visible
12 Dec -1.7 05:17:03 11° NW 05:17:09 11° NW 05:18:02 10° NW visible
